Powrót do katalogu

STARLINK-34892

AktywnyŁącznośćVLEO
NORAD 65350·PAYLOAD·🇺🇸 United States

Wystrzelony Aug 27, 2025 z Cape Canaveral Space Force Station

Loading…

Następne Przeloty (najbliższe 24 godziny)

TLE

ŚwieżeSource: CelesTrak SupGP

Epoka: Sep 14, 2026, 22:54 UTC

1 65350C 25189AD  26257.95465278  .00018536  00000+0  59622-3 0  2578
2 65350  53.1591  45.9509 0001377  80.7252  63.9669 15.31684115    14

Śledź STARLINK-34892 w czasie rzeczywistym z AllMySat

Download on the App Store